Location: Ellerstadt
(49.4644°N, 8.2615°E)
Time: 19:36:42
(UTC+00:00)

Vanguard 1 - Pass Details

Date: 16 June 2021
Orbit: 651 x 3831 km, 34.2° (Epoch: 29 July)

Event Time Altitude Azimuth Distance (km) Brightness Sun altitude
Rises 23:09:30 0° 249° (WSW) 7,813 14.5 -17.0°
Reaches altitude 10° 23:15:35 10° 244° (WSW) 6,528 14.0 -17.1°
Maximum altitude 23:33:04 43° 182° (S) 3,223 12.2 -17.1°
Drops below altitude 10° 23:43:32 10° 116° (ESE) 4,005 13.0 -17.1°
Sets 23:46:17 0° 109° (ESE) 4,656 13.4 -17.0°
